Tracking 28790 objects as of 18-Apr-2024
HD Live streaming from Space Station
objects crossing your sky now

SL-12 R/B(2)

Track SL-12 R/B(2) now!


NORAD ID: 14948
Int'l Code: 1984-022F
Perigee: 35,804.8 km
Apogee: 36,013.4 km
Inclination: 11.1 °
Period: 1,442.0 minutes
Semi major axis: 42280 km
RCS: 1.7458 m2 (large)
Launch date: March 2, 1984
Source: Commonwealth of Independent States (former USSR) (CIS)
Launch site: TYURATAM MISSILE AND SPACE COMPLEX (TTMTR)

Note: This is a ROCKET BODY
Your satellite tracking list
Your tracking list is empty




NASA's NSSDC Master Catalog

Two Line Element Set (TLE):
1 14948U 84022F   24109.11720706  .00000050  00000-0  00000+0 0  9996
2 14948  11.1304 311.9978 0024668 133.1238 226.9729  0.99861685153618
Source of the keplerian elements: AFSPC